Tracking 28348 objects as of 8-Dec-2023
HD Live streaming from Space Station
objects crossing your sky now

LAYAN-23

Track LAYAN-23 now!
10-day predictions


NORAD ID: 56939
Int'l Code: 2023-084H
Perigee: 513.0 km
Apogee: 524.1 km
Inclination: 97.5 °
Period: 94.9 minutes
Semi major axis: 6889 km
RCS: Unknown
Launch date: June 12, 2023
Source: Republic of Rwanda (RWA)
Launch site: AIR FORCE WESTERN TEST RANGE (AFWTR)
Your satellite tracking list
Your tracking list is empty




NASA's NSSDC Master Catalog

Two Line Element Set (TLE):
1 56939U 23084H   23342.09592176  .00010620  00000-0  52273-3 0  9993
2 56939  97.5238  96.6552 0008042 331.4684  28.6109 15.18145547 26986
Source of the keplerian elements: AFSPC